Location: LDNL
(36.4545°S, 141.6685°E)
Time: 11:31:24
(UTC+10:00)

Explorer 7 - Pass Details

Date: 16 August 2022
Orbit: 482 x 668 km, 50.3° (Epoch: 26 September)

Event Time Altitude Azimuth Distance (km) Brightness Sun altitude
Rises 16:05:32 0° 329° (NNW) 2,985 11.8 19.9°
Reaches altitude 10° 16:07:57 10° 335° (NNW) 2,089 11.0 19.5°
Maximum altitude 16:12:32 43° 46° (NE) 945 8.1 18.8°
Drops below altitude 10° 16:17:09 10° 116° (ESE) 2,100 9.2 18.0°
Sets 16:19:35 0° 123° (ESE) 3,004 9.9 17.6°
